TimePDT,TemperatureF,Dew PointF,Humidity,Sea Level PressureIn,VisibilityMPH,Wind Direction,Wind SpeedMPH,Gust SpeedMPH,PrecipitationIn,Events,Conditions,WindDirDegrees,DateUTC
12:53 AM,57.9,52.0,81,29.91,10.0,NNW,4.6,-,N/A,,Clear,330,2013-09-18 07:53:00
1:53 AM,57.0,51.1,81,29.91,9.0,NW,4.6,-,N/A,,Clear,320,2013-09-18 08:53:00
2:53 AM,55.9,51.1,84,29.91,9.0,Calm,Calm,-,N/A,,Clear,0,2013-09-18 09:53:00
3:53 AM,55.9,51.1,84,29.89,8.0,Calm,Calm,-,N/A,,Clear,0,2013-09-18 10:53:00
4:53 AM,55.0,50.0,83,29.90,9.0,WNW,3.5,-,N/A,,Partly Cloudy,290,2013-09-18 11:53:00
5:04 AM,53.6,51.8,94,29.88,8.0,WNW,4.6,-,N/A,,Mostly Cloudy,300,2013-09-18 12:04:00
5:16 AM,53.6,51.8,94,29.87,2.5,Calm,Calm,-,N/A,,Overcast,0,2013-09-18 12:16:00
5:24 AM,53.6,53.6,100,29.87,1.0,Calm,Calm,-,N/A,,Overcast,0,2013-09-18 12:24:00
5:38 AM,53.6,53.6,100,29.87,0.8,Calm,Calm,-,N/A,,Overcast,0,2013-09-18 12:38:00
5:53 AM,54.0,53.1,97,29.91,0.8,Calm,Calm,-,N/A,,Overcast,0,2013-09-18 12:53:00
6:50 AM,53.6,53.6,100,29.89,0.2,Calm,Calm,-,N/A,Fog,Fog,0,2013-09-18 13:50:00
6:53 AM,54.0,53.1,97,29.92,0.2,Calm,Calm,-,N/A,Fog,Fog,0,2013-09-18 13:53:00
7:30 AM,51.8,51.8,100,29.90,0.2,Calm,Calm,-,N/A,Fog,Fog,0,2013-09-18 14:30:00
7:53 AM,52.0,51.1,97,29.93,0.2,Calm,Calm,-,N/A,Fog,Fog,0,2013-09-18 14:53:00
8:00 AM,51.8,51.8,100,29.90,0.2,SE,3.5,-,N/A,Fog,Fog,130,2013-09-18 15:00:00
8:10 AM,51.8,51.8,100,29.90,0.2,ESE,3.5,-,N/A,Fog,Fog,110,2013-09-18 15:10:00
8:33 AM,53.6,51.8,94,29.90,1.0,East,3.5,-,N/A,,Mist,80,2013-09-18 15:33:00
8:43 AM,53.6,53.6,100,29.90,3.0,East,3.5,-,N/A,,Mostly Cloudy,100,2013-09-18 15:43:00
8:53 AM,54.0,52.0,93,29.92,8.0,ESE,8.1,-,N/A,,Scattered Clouds,110,2013-09-18 15:53:00
9:53 AM,63.0,53.1,70,29.94,10.0,Calm,Calm,-,N/A,,Clear,0,2013-09-18 16:53:00
10:53 AM,71.1,54.0,55,29.93,10.0,WSW,8.1,-,N/A,,Clear,250,2013-09-18 17:53:00
11:53 AM,72.0,54.0,53,29.91,10.0,West,6.9,-,N/A,,Clear,280,2013-09-18 18:53:00
12:53 PM,77.0,51.1,40,29.90,10.0,West,11.5,-,N/A,,Clear,260,2013-09-18 19:53:00
1:53 PM,73.0,52.0,48,29.89,10.0,West,19.6,23.0,N/A,,Clear,280,2013-09-18 20:53:00
2:53 PM,71.1,52.0,51,29.88,10.0,WNW,9.2,-,N/A,,Clear,290,2013-09-18 21:53:00
3:53 PM,72.0,51.1,48,29.87,10.0,West,11.5,-,N/A,,Clear,270,2013-09-18 22:53:00
4:53 PM,70.0,50.0,49,29.88,10.0,West,12.7,-,N/A,,Clear,280,2013-09-18 23:53:00
5:53 PM,68.0,48.9,50,29.88,10.0,West,10.4,-,N/A,,Clear,270,2013-09-19 00:53:00
6:53 PM,66.0,48.9,54,29.88,10.0,West,6.9,-,N/A,,Clear,260,2013-09-19 01:53:00
7:53 PM,64.9,48.9,56,29.89,10.0,NW,5.8,-,N/A,,Clear,310,2013-09-19 02:53:00
8:53 PM,63.0,50.0,63,29.89,10.0,NW,6.9,-,N/A,,Clear,310,2013-09-19 03:53:00
9:53 PM,63.0,50.0,63,29.89,10.0,NNW,5.8,-,N/A,,Clear,330,2013-09-19 04:53:00
10:53 PM,61.0,50.0,67,29.89,10.0,WNW,3.5,-,N/A,,Clear,300,2013-09-19 05:53:00
11:53 PM,59.0,50.0,72,29.89,10.0,NW,3.5,-,N/A,,Clear,310,2013-09-19 06:53:00